This is the latest recevied weather packets stored in our database for station/object LU2DKV-10. If no packets are shown the sender has not sent any weather packets the latest 10 day(s).
| Time | Temp. | Humidity | Pressure | Rain* | Wind** | Luminosity | Snow |
|---|---|---|---|---|---|---|---|
| 1777811756 | 11.67° C | 51% | 1023 hPa | - | - | 0 W/m² | - |
| 1777809935 | 10.56° C | 56% | 1023 hPa | - | - | 0 W/m² | - |
| 1777808112 | 9.44° C | 60% | 1023 hPa | - | - | 0 W/m² | - |
| 1777806290 | 9.44° C | 66% | 1024 hPa | - | - | 0 W/m² | - |
| 1777804471 | 8.89° C | 65% | 1024 hPa | - | - | 0 W/m² | - |
| 1777802646 | 8.89° C | 65% | 1024 hPa | - | - | 0 W/m² | - |
| 1777800824 | 9.44° C | 63% | 1024 hPa | - | - | 0 W/m² | - |
| 1777799002 | 9.44° C | 63% | 1024 hPa | - | - | 0 W/m² | - |
| 1777797179 | 9.44° C | 61% | 1024 hPa | - | - | 0 W/m² | - |
| 1777795357 | 9.44° C | 60% | 1024 hPa | - | - | 0 W/m² | - |
| 1777793535 | 10° C | 61% | 1025 hPa | - | - | 0 W/m² | - |
| 1777791713 | 10° C | 60% | 1025 hPa | - | - | 0 W/m² | - |
| 1777790475 | 10° C | 59% | 1025 hPa | - | - | 0 W/m² | - |
| 1777789242 | 10° C | 60% | 1025 hPa | - | - | 0 W/m² | - |
| 1777787420 | 10.56° C | 59% | 1026 hPa | - | - | 0 W/m² | - |
| 1777785598 | 10.56° C | 57% | 1026 hPa | - | - | 0 W/m² | - |
| 1777783776 | 11.11° C | 58% | 1026 hPa | - | - | 0 W/m² | - |
| 1777781954 | 11.11° C | 56% | 1026 hPa | - | - | 0 W/m² | - |
| 1777780132 | 11.11° C | 55% | 1027 hPa | - | - | 0 W/m² | - |
| 1777778310 | 11.67° C | 55% | 1027 hPa | - | - | 0 W/m² | - |
| 1777776488 | 11.67° C | 53% | 1027 hPa | - | - | 0 W/m² | - |
| 1777774666 | 12.22° C | 51% | 1027 hPa | - | - | 0 W/m² | - |
| 1777772844 | 12.22° C | 49% | 1027 hPa | - | - | 0 W/m² | - |
| 1777771022 | 12.78° C | 49% | 1027 hPa | - | - | 0 W/m² | - |
| 1777769131 | 12.78° C | 49% | 1027 hPa | - | - | 0 W/m² | - |
* Rain since midnight (hover to see other rain measurements)
** Current wind speed in m/s (hover to see current wind gust speed)